Location: Hohenfelde
(53.8441°N, 9.6220°E)
Time: 12:42:39
(UTC+00:00)

Cosmos 1602 - Pass Details

Date: 14 July 2020
Orbit: 515 x 533 km, 82.5° (Epoch: 12 August)

Event Time Altitude Azimuth Distance (km) Brightness Sun altitude
Exits shadow 00:17:14 20° 161° (SSE) 1,244 5.1 -13.8°
Maximum altitude 00:19:36 47° 95° (E) 695 4.3 -13.7°
Drops below altitude 10° 00:23:21 10° 21° (NNE) 1,768 7.8 -13.6°
Sets 00:25:32 0° 16° (NNE) 2,665 9.4 -13.5°
